This demonstration page uses our WeatherBlox Daily Observations layout. Learn more.

Left ArrowRight Arrow

38.89511, -77.03637

Hourly Observations for March 27, 2017

Temp ( °F °C ) Dew Point ( °F °C ) Humidity (%) Winds ( mph kmh ) Pressure ( in mb ) Visibility ( mi km ) Precip ( " mm )
12:52 am 00:52 Cloudy with Drizzle 47 8.3 46 7.8 97 97 E 7 11 30.19 1022 3 5 N/A
1:52 am 01:52 Cloudy with Drizzle 47 8.3 46 7.8 97 97 E 5 7 30.16 1021 4 6 N/A
2:07 am 02:07 Mostly Cloudy with Mist and Fog 47 8.3 46 7.8 97 97 E 7 11 30.15 1021 2 3 N/A
2:52 am 02:52 Mostly Cloudy with Mist and Fog 47 8.3 46 7.8 97 97 E 6 9 30.15 1021 2 3 N/A
3:50 am 03:50 Cloudy with Drizzle 46 8 46 8 100 100 ENE 3 6 30.12 1020 3 5 N/A
3:52 am 03:52 Cloudy with Drizzle 47 8.3 47 8.3 100 100 N N/A 30.12 1020 3 5 0.01 0.25
3:59 am 03:59 Cloudy with Mist and Fog 47 8.3 46 7.8 97 97 E 3 6 30.12 1020 3 4 N/A
4:52 am 04:52 Cloudy with Mist and Fog 47 8.3 46 7.8 97 97 E 3 6 30.10 1019 3 4 N/A
5:52 am 05:52 Cloudy with Mist and Fog 47 8.3 47 8.3 100 100 N N/A 30.11 1020 3 4 N/A
6:05 am 06:05 Mostly Cloudy with Mist and Fog 48 8.9 47 8.3 96 96 N N/A 30.12 1020 2 3 N/A
6:27 am 06:27 Mostly Cloudy with Drizzle 48 8.9 47 8.3 96 96 N 5 7 30.12 1020 1 2 N/A
6:45 am 06:45 Mostly Cloudy with Drizzle 48 8.9 47 8.3 96 96 N 5 7 30.12 1020 1 1 N/A
6:52 am 06:52 Mostly Cloudy with Drizzle 48 8.9 48 8.9 100 100 N 3 6 30.11 1020 1 1 N/A
7:52 am 07:52 Mostly Cloudy with Drizzle 48 8.9 48 8.9 100 100 SE 3 6 30.10 1019 0 0 N/A
8:52 am 08:52 Mostly Cloudy with Drizzle 48 8.9 48 8.9 100 100 S 3 6 30.10 1019 0 0 N/A
8:59 am 08:59 Mostly Cloudy with Drizzle 48 9 48 9 100 100 S 3 6 30.09 1019 0 0 N/A
9:07 am 09:07 Mostly Cloudy with Drizzle 49 9.4 49 9.4 100 100 S 5 7 30.09 1019 1 1 N/A
9:52 am 09:52 Cloudy with Mist and Fog 49 9.4 49 9.4 100 100 S 7 11 30.09 1019 1 2 N/A
10:13 am 10:13 Cloudy with Mist and Fog 50 10 50 10 100 100 S 7 11 30.09 1019 3 4 N/A
10:30 am 10:30 Cloudy with Mist and Fog 52 11 52 11 100 100 S 8 13 30.09 1019 4 6 N/A
10:52 am 10:52 Cloudy with Mist and Fog 52 11.1 51 10.6 97 97 S 9 15 30.08 1019 6 10 N/A
10:55 am 10:55 Cloudy with Mist and Fog 52 11.1 51 10.6 97 97 S 9 15 30.09 1019 6 10 N/A
11:52 am 11:52 Cloudy 56 13.3 52 11.1 87 87 S 7 11 30.06 1018 10 16 N/A
12:52 pm 12:52 Mostly Cloudy 60 15.6 55 12.8 84 84 SSE 7 11 30.05 1018 10 16 N/A
1:11 pm 13:11 Partly Cloudy 62 16.7 55 12.8 78 78 SSE 12 19 30.03 1017 10 16 N/A
1:52 pm 13:52 Partly Cloudy 64 17.8 56 13.3 75 75 SSE 8 13 30.02 1017 10 16 N/A
2:52 pm 14:52 Mostly Cloudy 69 20.6 57 13.9 66 66 ESE 3 6 29.99 1016 10 16 N/A
3:52 pm 15:52 Sunny 73 22.8 58 14.4 59 59 NE 6 9 29.96 1015 10 16 N/A
4:52 pm 16:52 Mostly Cloudy 73 22.8 58 14.4 59 59 N 5 7 29.94 1014 10 16 N/A
5:52 pm 17:52 Mostly Cloudy 73 22.8 58 14.4 59 59 NE 3 6 29.92 1013 10 16 N/A
6:52 pm 18:52 Mostly Cloudy 69 20.6 56 13.3 63 63 ESE 14 22 29.91 1013 10 16 N/A
7:52 pm 19:52 Mostly Cloudy 68 20 57 13.9 68 68 ENE 3 6 29.92 1013 10 16 N/A
8:52 pm 20:52 Mostly Cloudy 66 18.9 57 13.9 73 73 NNE 3 6 29.93 1013 10 16 N/A
9:52 pm 21:52 Cloudy with Light Rain 66 18.9 58 14.4 75 75 N 8 13 29.93 1014 10 16 N/A
10:52 pm 22:52 Cloudy 62 16.7 56 13.3 80 80 ENE 5 7 29.92 1013 10 16 N/A
11:52 pm 23:52 Mostly Cloudy 62 16.7 56 13.3 80 80 N N/A 29.92 1013 10 16 N/A

Powered by AerisWeather